Guatemala, Guatemala

11:58 PM CST on March 24, 2017 (GMT -0600)
La Aurora International

Weather History for MGGT - November, 2012

Change the Weather History Date:

Saturday, November 10, 2012

  Actual Average Record
Temperature  
Mean Temperature 64 °F -  
Max Temperature 74 °F 71 °F 77 °F (2000)
Min Temperature 54 °F 56 °F 51 °F (2004)
Degree Days  
Heating Degree Days 1    
Growing Degree Days 14 (Base 50)    
Moisture  
Dew Point 55 °F    
Average Humidity 77    
Maximum Humidity 94    
Minimum Humidity 49    
Precipitation  
Precipitation 0.00 in - - ()
Sea Level Pressure  
Sea Level Pressure 30.25 in    
Wind  
Wind Speed 11 mph ()    
Max Wind Speed 18 mph    
Max Gust Speed -    
Visibility 6.2 miles    
Events      
Averages and records for this station are not official NWS values.
T = Trace of Precipitation, MM = Missing Value Source: Averaged Metar Reports

Daily Weather History Graph

Daily Weather History Graph

Search for Another Location

Airport or City:

Trip Planner

Search our weather history database for the weather conditions in past years. The results will help you decide how hot, cold, wet, or windy it might be!

Date:

Astronomy

Nov. 10, 2012 Rise Set
Actual Time 6:01 AM CST 5:30 PM CST
Civil Twilight 5:38 AM CST 5:53 PM CST
Nautical Twilight 5:12 AM CST 6:19 PM CST
Astronomical Twilight 4:47 AM CST 6:44 PM CST
Moon 2:38 AM CST (11/10) 2:51 PM CST (11/10)
Length of Visible Light 12h 14m
Length of Day
11h 29m
Waning Crescent, 14% of the Moon is Illuminated
Nov 10
Waning Crescent
Nov 13
New
Nov 20
First Quarter
Nov 28
Full
Dec 6
Last Quarter

Hourly Weather History & Observations

Time (CST) Temp. Dew Point Humidity Pressure Visibility Wind Dir Wind Speed Gust Speed Precip Events Conditions
12:00 AM 55.4 °F 53.6 °F 94% 30.30 in 6.2 mi North 11.5 mph - N/A   Partly Cloudy
1:00 AM 55.4 °F 53.6 °F 94% 30.30 in 6.2 mi North 13.8 mph - N/A   Partly Cloudy
2:00 AM 55.4 °F 51.8 °F 88% 30.27 in - North 11.5 mph - N/A   Clear
3:00 AM 55.4 °F 53.6 °F 94% 30.27 in - NNE 11.5 mph - N/A   Clear
4:00 AM 55.4 °F 51.8 °F 88% 30.27 in - NNE 9.2 mph - N/A   Clear
5:00 AM 55.4 °F 53.6 °F 94% 30.27 in - NNE 9.2 mph - N/A   Clear
6:00 AM 56 °F 52 °F 81% 30.05 in 25 mi NNE 9.2 mph - -   Partly Cloudy
6:00 AM 55.4 °F 51.8 °F 88% 30.30 in - NNE 9.2 mph - N/A   Clear
7:00 AM 57.2 °F 53.6 °F 88% 30.30 in 6.2 mi NNE 11.5 mph - N/A   Mostly Cloudy
8:00 AM 60.8 °F 53.6 °F 77% 30.33 in 6.2 mi North 11.5 mph - N/A   Mostly Cloudy
9:00 AM 64.4 °F 51.8 °F 64% 30.36 in 6.2 mi North 16.1 mph - N/A   Mostly Cloudy
10:00 AM 68.0 °F 57.2 °F 68% 30.30 in 6.2 mi North 18.4 mph - N/A   Scattered Clouds
12:00 PM 71 °F 56 °F 49% 29.99 in 25 mi North 16.1 mph - -   Scattered Clouds
12:00 PM 71.6 °F 55.4 °F 57% 30.30 in 6.2 mi North 16.1 mph - N/A   Scattered Clouds
1:00 PM 71.6 °F 59.0 °F 64% 30.27 in 6.2 mi North 16.1 mph - N/A   Scattered Clouds
2:00 PM 71.6 °F 57.2 °F 60% 30.24 in 6.2 mi North 13.8 mph - N/A   Scattered Clouds
3:00 PM 71.6 °F 55.4 °F 57% 30.21 in 6.2 mi North 13.8 mph - N/A   Scattered Clouds
4:00 PM 69.8 °F 55.4 °F 60% 30.21 in 6.2 mi North 13.8 mph - N/A   Scattered Clouds
5:00 PM 68.0 °F 55.4 °F 64% 30.24 in 6.2 mi North 11.5 mph - N/A   Scattered Clouds
6:00 PM 67 °F 56 °F 60% 29.98 in 25 mi North 11.5 mph - -   Overcast
6:00 PM 66.2 °F 57.2 °F 73% 30.24 in 6.2 mi North 11.5 mph - N/A   Scattered Clouds
7:00 PM 64.4 °F 57.2 °F 77% 30.27 in 6.2 mi North 13.8 mph - N/A   Scattered Clouds
8:00 PM 62.6 °F 59.0 °F 88% 30.30 in 6.2 mi North 11.5 mph - N/A   Scattered Clouds
9:00 PM 62.6 °F 57.2 °F 82% 30.33 in 6.2 mi North 13.8 mph - N/A   Scattered Clouds
10:00 PM 60.8 °F 59.0 °F 94% 30.33 in 6.2 mi North 11.5 mph - N/A   Scattered Clouds
11:00 PM 60.8 °F 57.2 °F 88% 30.30 in 6.2 mi North 11.5 mph - N/A   Scattered Clouds